User: anonymous   Login
Location: Montreal
(45.5000°N, 73.5833°W)
Time: 04:20:29
(UTC-04:00)
Language:

N. Korean satellite - Orbit

View from above orbital plane
View from above orbital plane
View from above satellite
View from above satellite

Ground track
Ground track

The orbit data is extracted from the following two-line orbital elements,

1 39026U 12072A   17293.47892252 +.00001918 +00000-0 +75668-4 0  9998
2 39026 097.2195 307.0442 0041957 093.1616 267.4424 15.25936088269033
Epoch (UTC): 20 October 2017 11:29:38
Eccentricity: 0.0041957
inclination: 97.2195°
perigee height: 459 km
apogee height: 517 km
right ascension of ascending node: 307.0442°
argument of perigee: 93.1616°
revolutions per day: 15.25936088
mean anomaly at epoch: 267.4424°
orbit number at epoch: 26903

The dashed part of the orbit path shows where the satellite is in the earth's shadow,  

DLR